Vorticity
3 4 3 3 3 2 2 2 3 6 5 3 7 -2 2 19 17 32 19 -2 5 2 5 6 4 6 6 6 5 7 10 10 6 8 9 8 10 8 8 6 7 8 8 7 7 7 8 7 5 5 6 6 7 6 7 6 8 8 8 7 7 8 8 8 8 8 7 6 7 6 6 6 5 6 5 4 3 3 2 3 2 4 5 4 5 6 6 6 7 7 7 7 8 10 8 11 9
3 4 3 3 3 2 3 3 5 6 7 4 7 13 25 38 46 45 15 -3 4 3 6 5 5 7 5 5 7 8 8 9 7 8 8 9 8 8 8 5 7 8 8 6 7 7 6 7 6 6 4 5 7 6 6 6 8 7 8 7 7 7 6 7 7 7 7 7 7 6 6 5 5 5 4 3 3 3 2 3 3 5 6 5 5 5 6 5 5 6 8 8 8 8 7 12 13
2 2 2 3 2 3 5 5 7 7 6 -1 7 25 30 32 35 26 5 -2 1 5 6 3 4 5 6 6 8 8 7 9 8 7 8 10 8 7 7 5 7 8 8 6 7 8 6 6 6 7 5 5 7 6 6 6 8 8 7 6 6 6 5 6 5 6 6 6 6 6 6 5 6 5 5 4 3 4 2 3 3 4 6 6 6 5 5 4 4 5 8 11 10 9 7 10 16
1 2 2 3 3 5 6 8 10 8 5 1 11 18 15 18 19 10 -1 -1 3 6 5 2 4 4 5 5 7 8 6 8 7 7 8 9 8 8 6 5 8 8 7 6 7 8 7 7 6 6 5 6 7 6 7 7 8 7 6 6 5 5 5 4 5 6 5 5 5 6 6 6 6 5 5 4 4 5 3 5 6 7 8 6 5 5 5 5 6 8 8 9 12 10 9 11 14
2 4 4 5 6 7 8 13 11 9 8 5 11 10 7 13 12 8 -2 1 8 6 4 4 5 4 6 5 6 7 6 7 8 8 7 7 9 8 7 6 8 7 4 6 7 6 7 7 6 6 6 6 7 7 8 8 8 7 7 5 5 5 5 5 5 5 5 5 5 6 6 8 8 6 6 6 7 10 10 11 13 12 11 7 5 7 8 7 9 10 10 10 11 10 9 11 12
4 5 5 5 6 8 11 11 5 10 10 0 9 11 3 7 8 4 -3 3 9 4 5 6 5 5 7 7 7 7 7 6 7 9 7 7 9 8 8 6 6 6 5 7 6 6 7 6 7 6 6 6 7 8 8 8 7 7 7 6 6 6 5 5 6 6 5 5 6 7 7 8 10 10 9 9 11 13 14 14 14 10 7 5 6 10 9 9 10 10 12 12 11 11 9 10 12
5 3 3 4 5 9 8 4 2 9 10 -1 9 18 6 6 7 -4 -2 4 5 4 5 6 5 5 6 8 9 7 6 6 6 8 7 7 9 9 7 7 6 6 6 7 5 7 7 5 6 6 6 7 7 8 7 7 8 7 7 7 7 7 6 5 8 7 6 7 8 7 7 7 10 13 12 11 11 11 10 10 9 6 6 8 10 12 11 11 11 10 11 12 10 11 11 10 11
4 1 2 4 6 8 4 4 8 3 7 3 5 25 14 5 6 -4 1 1 2 8 5 4 4 5 6 8 10 7 5 6 6 7 8 7 8 8 7 8 6 4 5 6 5 7 8 7 7 7 7 7 7 6 5 6 7 8 7 7 7 7 7 6 8 8 7 8 8 8 9 8 8 11 11 11 10 9 9 9 8 8 11 12 12 10 9 11 9 7 8 11 10 8 9 11 11
3 3 2 4 6 7 4 4 9 -2 2 7 4 28 19 2 7 -2 1 -1 -0 8 4 4 5 5 7 8 9 7 6 6 6 6 7 8 8 7 7 9 7 5 6 5 6 7 8 8 7 7 7 7 6 5 5 6 6 7 7 7 7 8 8 8 8 8 8 9 9 10 11 11 9 9 8 8 8 8 10 11 12 12 11 9 9 8 8 9 8 8 9 11 10 8 9 11 12
2 4 2 4 5 7 7 2 6 1 4 9 8 25 14 1 7 0 4 1 -2 5 5 6 5 5 7 8 9 6 6 6 6 6 7 8 8 7 7 9 7 6 7 5 5 6 7 7 7 6 7 7 6 5 5 5 6 6 7 7 6 8 9 9 8 8 9 9 9 10 12 11 9 8 7 8 8 9 9 11 12 9 8 6 7 9 9 9 10 10 9 10 9 10 11 12 13
2 5 2 4 4 5 7 2 5 4 6 9 11 24 14 2 5 3 7 2 0 5 4 6 5 5 7 7 8 6 6 6 6 6 7 7 7 6 6 7 6 6 7 7 6 6 7 7 6 6 6 7 6 6 6 6 7 6 6 7 7 9 9 9 8 8 7 7 10 10 8 8 8 7 7 7 6 7 9 9 9 7 7 7 7 7 8 9 9 10 9 8 9 10 12 12 12
2 5 2 2 4 3 3 3 2 2 8 12 15 24 13 2 4 6 9 3 4 6 3 6 5 4 7 8 8 6 5 6 7 6 6 7 7 6 6 6 5 5 6 7 6 7 7 7 6 6 6 6 6 6 6 7 6 7 7 6 7 9 8 8 8 8 7 6 10 9 6 7 7 6 5 5 4 5 8 9 7 6 5 5 7 7 8 8 7 8 8 8 8 9 10 10 10
2 4 4 3 3 2 3 4 3 8 15 15 19 20 9 5 5 6 8 3 4 7 6 5 4 6 7 8 8 6 6 6 6 6 7 7 7 6 6 6 4 5 6 6 6 7 7 7 7 6 6 5 7 6 5 6 6 7 7 6 7 8 7 7 7 8 7 6 8 8 6 7 7 6 6 4 2 3 6 9 8 5 4 4 6 8 8 8 7 8 8 9 8 8 9 9 10
0 2 2 3 4 3 4 5 9 16 16 18 26 20 6 5 6 8 8 4 4 7 7 4 3 7 7 8 9 6 5 6 6 6 7 7 7 6 6 6 5 5 5 6 6 6 7 7 7 6 6 6 7 7 6 6 7 8 7 7 6 7 8 7 8 9 9 7 7 8 7 7 7 6 6 5 3 4 8 10 9 6 4 5 6 7 7 8 10 9 6 9 10 8 8 9 9
2 3 3 3 6 4 3 5 11 14 15 28 36 23 5 -1 5 8 5 4 6 5 5 4 2 3 6 8 8 8 6 6 6 5 6 7 7 6 6 5 5 5 5 6 5 6 7 6 7 7 6 7 7 7 7 7 7 9 8 7 7 6 6 8 9 9 9 7 7 8 6 6 7 6 5 7 6 5 9 10 8 6 4 4 5 6 7 8 9 9 8 9 11 10 7 7 8
4 4 4 4 5 1 3 10 15 14 21 34 30 21 9 2 8 7 5 7 5 3 4 3 3 3 5 8 8 9 7 7 7 5 6 6 7 6 6 7 5 5 5 6 6 6 7 6 5 7 7 7 7 7 7 7 7 9 9 7 6 5 5 8 9 8 7 7 9 7 5 7 7 7 8 8 9 7 7 7 7 7 5 4 6 7 8 8 8 9 10 10 11 12 8 4 5
4 5 2 3 4 1 3 10 14 11 19 28 19 17 10 3 9 6 6 9 4 3 4 3 5 6 3 4 8 10 8 7 7 5 6 6 7 6 5 7 6 5 6 6 6 6 7 7 6 7 8 7 7 7 7 7 8 8 9 8 7 7 7 7 8 9 9 8 7 4 3 8 8 8 9 8 9 8 5 4 7 7 6 6 7 9 8 9 10 9 11 13 12 12 10 6 5
4 7 3 3 4 2 8 9 10 9 13 18 13 13 7 2 5 3 5 7 4 2 6 7 5 5 3 3 7 9 9 8 8 6 5 7 6 6 6 6 6 5 6 6 6 7 7 8 9 8 8 7 7 6 7 8 8 8 9 8 5 3 2 5 10 10 8 7 4 4 5 8 11 9 7 9 9 9 8 6 8 7 7 8 8 9 8 9 10 10 12 15 14 13 12 9 6
4 6 4 10 8 4 9 6 10 13 11 11 9 9 3 3 5 2 5 6 4 2 5 8 4 5 3 4 5 7 10 8 8 6 5 7 6 6 5 5 6 5 5 6 6 6 6 7 8 8 8 7 6 6 8 8 6 7 9 7 3 3 5 7 13 10 7 8 3 6 8 5 11 11 6 8 8 9 9 7 8 7 6 7 4 5 6 7 8 9 12 14 15 13 12 11 9
5 7 2 9 10 6 6 4 13 8 4 11 9 6 2 4 6 3 4 1 3 5 6 6 5 6 3 4 3 4 11 9 6 6 4 6 6 6 6 5 5 5 5 6 6 6 6 7 7 8 8 6 6 5 7 9 6 6 6 3 -1 3 6 4 8 9 7 7 6 10 8 1 6 11 7 7 8 9 8 4 5 5 3 6 7 7 6 5 7 7 10 12 12 12 11 11 9
5 9 2 6 7 6 5 6 14 3 -0 10 4 3 5 3 2 3 3 0 4 7 7 8 7 5 4 5 2 4 11 11 7 5 4 5 5 5 5 5 5 5 5 5 6 6 6 6 7 8 7 7 8 6 6 8 8 9 9 9 9 9 8 5 6 6 5 6 10 12 7 4 5 6 7 7 5 5 6 4 5 6 5 11 9 8 10 7 8 7 8 12 12 13 12 11 11
4 6 4 16 12 3 6 6 11 5 3 9 2 4 11 9 7 8 6 3 6 6 5 9 7 4 8 7 2 4 9 11 9 5 5 6 5 5 4 4 4 5 5 5 5 5 6 6 6 8 8 8 8 7 7 6 5 7 10 12 14 14 11 11 9 8 11 11 10 8 7 9 7 4 8 8 6 6 7 7 9 7 8 11 1 5 15 8 7 8 7 11 13 15 15 14 13
4 -0 -1 14 12 2 5 6 7 6 8 10 4 3 7 8 10 11 7 4 1 1 6 7 4 5 11 11 4 3 7 10 10 6 6 5 6 5 4 4 4 5 4 5 6 5 6 6 5 6 8 9 8 7 7 7 8 7 7 8 8 9 9 9 8 9 12 11 8 7 7 9 8 8 11 10 10 12 10 11 12 7 10 13 5 10 13 2 5 9 7 8 9 11 14 15 14
2 1 6 11 8 5 4 4 3 6 11 10 5 8 9 3 -1 -4 -1 8 1 -2 8 6 3 4 9 13 8 4 5 9 10 9 7 5 6 5 4 5 4 5 4 4 5 5 6 5 5 5 7 9 9 8 6 6 8 7 7 7 6 6 7 6 6 6 7 7 6 7 7 9 10 10 11 10 10 12 10 12 12 6 9 11 9 11 6 1 6 6 7 6 4 7 8 11 12
-0 -3 12 15 7 5 4 3 3 2 7 11 12 9 2 -0 1 -5 0 15 5 -2 6 5 3 3 4 10 10 5 5 7 8 8 8 5 5 6 5 5 4 4 4 5 4 5 5 5 5 5 6 8 10 8 6 5 5 6 7 7 7 6 5 5 5 5 6 6 6 8 9 9 9 7 9 9 9 11 9 10 10 6 8 5 4 7 3 5 5 2 7 6 5 8 6 7 8
7 -3 4 11 7 6 5 4 4 -0 1 10 17 10 -0 2 10 6 6 10 2 -2 5 6 6 3 2 7 8 6 6 8 9 7 6 5 5 5 5 5 5 5 4 5 4 4 5 5 5 5 5 7 10 9 6 5 5 5 7 7 7 6 5 5 5 5 5 6 6 8 8 6 6 6 6 7 8 10 10 10 10 8 9 7 5 5 3 4 4 3 6 5 8 8 6 7 7
12 6 5 9 6 5 6 4 4 2 0 3 6 11 13 11 11 12 9 5 3 5 5 5 6 4 3 6 6 6 8 9 10 9 8 6 5 5 6 6 5 5 5 5 4 4 4 6 6 4 5 6 8 10 7 5 4 5 6 6 7 6 6 6 5 5 5 5 7 7 6 5 5 5 5 5 5 8 9 11 11 10 9 8 7 6 4 5 5 5 5 6 9 7 6 7 7
13 10 5 8 5 4 6 5 5 3 1 4 4 9 16 12 8 10 8 2 5 6 3 4 6 5 5 5 5 4 6 8 8 10 11 9 6 5 6 6 5 5 5 5 5 4 3 5 6 5 5 7 7 9 8 5 4 4 4 5 6 7 7 7 6 5 5 5 6 6 5 4 4 4 4 4 4 5 7 9 11 12 10 8 8 7 6 6 5 5 6 8 9 8 7 7 7
11 10 4 6 6 5 6 5 5 2 1 6 3 7 18 17 8 5 4 5 10 7 2 5 7 6 6 5 5 4 4 7 8 10 11 11 8 7 7 6 6 5 5 5 5 4 3 4 6 6 5 6 7 8 9 6 4 4 4 4 5 6 7 7 7 6 6 5 6 6 4 4 4 4 4 5 4 4 5 5 7 11 10 9 9 9 8 8 7 6 7 8 8 9 8 7 6
10 13 6 3 6 7 5 4 4 -0 2 5 -0 7 16 15 12 10 9 8 10 8 3 5 7 5 6 5 5 6 4 3 7 8 8 11 9 8 8 8 7 5 5 5 5 5 4 4 5 6 5 6 7 7 8 7 5 4 3 3 3 4 6 7 7 7 6 6 6 5 5 4 3 4 4 5 5 4 4 4 5 7 9 9 9 9 8 8 7 7 8 8 8 8 7 7 6
12 14 9 3 4 7 4 3 6 -1 -1 3 -1 4 8 8 13 16 13 6 3 5 4 4 5 5 5 6 5 7 6 3 6 8 7 8 8 8 7 7 8 7 6 5 6 6 4 4 4 6 6 6 7 7 7 7 5 4 3 3 3 3 4 5 6 7 6 6 6 5 4 4 3 4 4 4 5 5 5 5 4 4 5 7 8 9 8 8 8 7 8 8 7 8 7 7 6
13 15 13 5 0 6 7 4 4 -1 2 6 -1 3 12 10 11 18 13 0 1 6 6 4 3 5 5 5 5 6 7 4 5 6 8 9 8 8 7 7 8 8 8 6 6 6 5 4 3 6 7 5 7 7 7 7 6 4 3 2 2 2 2 4 4 5 7 6 6 5 4 4 3 4 4 4 5 5 6 5 5 4 4 5 6 7 8 8 7 6 8 8 7 7 7 8 7
11 17 14 7 1 4 9 8 1 -5 5 12 1 3 12 8 9 23 17 1 6 9 5 6 3 4 5 5 6 6 7 6 5 5 6 9 9 9 8 7 8 8 9 8 6 6 6 5 3 5 7 6 7 7 7 7 6 5 3 2 2 2 2 3 4 4 6 7 7 6 5 4 4 4 4 3 4 5 6 6 6 5 4 4 5 5 6 6 6 7 7 7 7 7 6 7 7
10 17 13 9 6 3 6 12 6 -6 3 9 4 2 2 11 20 19 8 0 8 10 9 10 6 5 6 5 6 4 5 5 5 6 5 7 9 9 9 7 7 8 9 10 8 7 8 5 3 5 7 7 6 6 8 7 6 5 4 3 2 3 2 1 4 4 5 7 8 7 6 5 4 4 4 4 4 5 5 6 7 7 6 6 5 4 4 5 5 6 6 6 7 6 5 6 6
8 12 12 11 6 3 5 13 11 0 2 -1 4 7 -6 8 24 11 3 3 3 6 9 6 1 4 4 5 7 4 5 5 5 7 7 7 8 9 10 7 7 7 8 11 9 6 9 7 3 4 6 7 7 6 7 7 6 5 4 4 3 3 3 1 3 4 5 7 8 8 7 6 5 4 4 4 4 4 5 6 7 7 6 6 6 5 5 5 5 5 5 6 5 5 6 5 5
6 9 14 13 4 6 9 12 12 7 3 -9 1 13 1 9 20 8 6 6 7 11 5 -1 -0 5 5 6 7 3 4 5 5 9 10 8 7 8 10 8 7 7 5 9 11 7 7 8 3 3 6 6 7 6 5 6 7 6 5 4 4 3 3 3 3 3 4 6 7 8 7 7 6 5 5 5 4 4 4 5 6 7 6 6 6 6 6 6 6 7 6 6 6 6 6 6 6
6 4 16 16 -3 6 15 10 12 12 5 -3 0 2 5 26 24 9 10 11 16 19 9 5 5 6 6 6 6 4 5 6 5 7 10 9 8 8 10 11 8 7 6 5 10 10 6 8 5 2 5 6 6 7 5 5 7 7 6 4 4 4 4 4 3 3 4 6 7 8 8 7 6 6 6 6 6 4 4 5 5 6 6 5 5 5 5 5 6 6 6 7 7 7 7 7 7
1 -12 15 24 -7 6 21 7 10 14 6 8 9 -9 -4 23 22 10 11 12 11 7 6 7 1 3 7 6 6 4 4 7 5 5 9 9 8 8 10 13 10 5 8 5 7 11 8 6 6 3 3 5 6 7 6 6 7 7 7 6 5 4 4 4 3 3 4 5 6 7 8 7 7 7 6 6 6 6 5 5 5 6 6 5 4 4 4 5 5 5 6 6 6 7 7 8 8
-2 -21 9 23 -6 -0 20 14 9 10 7 13 14 2 2 9 12 17 13 10 11 6 6 6 -1 1 5 4 5 5 6 8 5 4 8 7 5 7 8 12 13 6 7 8 6 9 11 7 6 4 2 4 6 7 7 7 7 7 7 7 6 5 5 4 4 3 3 4 6 7 7 7 7 8 8 7 7 7 7 7 5 5 5 5 5 4 4 4 6 6 5 6 6 6 7 8 8
4 -7 4 13 -1 -11 9 28 16 2 4 8 7 5 10 5 2 16 19 13 14 13 10 7 3 3 4 4 4 6 8 7 6 5 5 7 4 4 7 10 13 9 6 9 7 7 11 10 6 4 3 3 6 7 7 7 7 7 7 7 7 6 5 5 4 4 4 4 5 6 6 7 8 8 9 9 9 9 9 8 7 6 5 5 4 4 3 3 4 5 6 6 7 8 8 9 8
7 3 -3 7 15 -6 -1 26 19 6 1 -4 4 2 2 9 5 5 14 17 13 8 8 7 5 6 6 4 3 6 9 6 6 6 4 6 5 3 4 7 11 12 7 6 8 6 9 12 8 5 3 3 5 7 8 7 7 7 6 6 6 6 5 5 5 5 5 5 5 7 6 6 8 8 9 9 9 10 10 9 8 7 7 5 4 3 2 2 3 4 6 7 7 8 9 9 9
6 4 -9 -6 19 8 -1 15 13 13 9 -6 1 2 -3 9 10 2 4 13 15 11 11 9 2 3 4 2 3 5 9 9 4 5 7 5 5 5 4 6 9 12 9 6 8 7 7 13 12 6 4 4 4 6 8 7 6 7 6 5 5 6 5 5 5 5 4 5 6 7 6 5 6 8 9 9 9 10 10 10 10 9 9 8 7 5 3 1 1 3 5 7 7 7 8 9 10
4 7 -3 -18 -0 6 7 30 21 8 18 12 -2 -5 1 8 9 8 6 7 12 12 11 10 3 3 4 2 4 5 6 9 6 6 9 6 6 7 5 6 7 11 12 7 8 8 7 11 14 10 5 4 4 5 7 6 5 5 5 5 5 5 6 5 6 5 4 5 7 7 6 5 5 6 8 8 9 10 10 10 10 10 9 10 9 9 8 6 5 4 4 7 7 7 9 8 9
3 10 15 -8 -12 -14 -8 30 26 -7 6 28 15 -10 -10 7 11 8 11 9 8 8 7 5 3 6 7 1 -0 4 6 8 8 7 8 8 8 8 7 5 5 9 13 10 8 9 7 8 13 14 8 4 4 4 6 6 5 4 4 5 6 6 6 6 6 5 4 5 6 6 5 5 4 5 7 8 9 10 10 11 10 9 9 10 11 11 11 10 10 8 6 6 6 6 8 8 9
0 7 19 8 1 -18 -26 13 20 -11 -13 18 39 12 -20 1 18 4 5 10 3 6 11 4 -0 -0 2 5 1 1 8 8 8 9 9 10 8 8 7 4 4 7 11 13 10 8 8 7 9 16 13 6 4 4 5 5 5 5 4 4 5 6 6 6 5 4 4 6 7 6 5 5 4 4 5 7 8 9 9 10 10 9 10 10 10 10 11 11 11 11 9 7 5 6 7 7 9
2 9 9 2 9 -4 -19 3 12 -3 -10 1 31 34 -4 -10 13 11 7 10 -1 -3 8 8 10 7 -3 1 4 3 5 3 4 10 13 10 7 9 8 3 5 7 7 12 13 9 9 8 8 14 16 11 4 4 4 4 5 6 5 5 5 5 5 5 5 5 5 6 7 6 6 6 4 4 5 6 7 8 7 7 8 8 9 9 10 10 9 10 11 11 11 9 7 8 8 8 10
-3 16 23 2 2 6 -5 -5 -3 -3 6 5 6 24 17 -14 -7 11 4 6 8 1 2 2 8 16 12 8 6 4 5 3 3 7 10 8 5 8 8 4 5 6 6 10 13 12 10 8 8 10 16 16 7 4 4 3 5 6 6 6 5 5 5 6 6 6 6 6 7 7 7 7 5 3 5 6 6 7 7 8 7 7 8 8 7 8 9 9 9 10 11 10 10 10 9 10 11
-14 -1 33 20 -2 5 4 -2 -4 -14 -4 19 6 0 18 3 -6 12 7 4 12 6 -0 -5 -9 -5 5 11 5 1 5 7 5 6 8 10 9 9 8 8 8 4 4 8 11 14 12 9 8 8 15 19 11 5 4 3 3 5 7 7 7 7 6 6 6 7 6 7 7 6 7 8 6 4 5 5 6 6 8 10 9 8 9 9 8 9 9 8 9 10 10 10 10 10 9 9 10
-5 -14 14 28 12 4 -0 1 9 -12 -23 16 21 -10 3 18 6 6 12 14 12 5 -0 0 2 -3 -4 2 2 3 9 9 10 15 15 11 10 11 7 7 9 6 5 8 9 13 13 10 7 7 13 18 15 7 3 3 2 4 7 7 8 8 7 8 7 7 7 7 7 6 8 8 6 6 5 5 6 6 7 9 9 8 9 10 10 9 8 8 8 9 9 9 9 9 9 9 9
5 -5 0 15 20 15 3 -6 5 2 -23 -6 23 5 -2 19 12 -7 1 14 14 10 6 4 8 9 10 10 4 2 9 14 19 23 22 13 6 8 7 6 9 7 5 6 5 8 12 11 7 6 11 18 18 9 3 2 1 4 8 8 9 8 8 9 8 7 7 8 8 7 7 9 7 6 5 4 6 5 6 7 6 6 7 9 10 9 8 7 8 8 8 9 8 9 10 10 10
12 -0 4 8 13 21 22 -1 -5 12 -9 -24 7 15 4 19 20 -4 -6 12 18 15 11 7 7 7 9 14 12 0 -4 7 13 12 17 14 4 6 10 9 9 7 6 5 3 6 9 11 8 5 9 17 20 12 5 2 0 3 7 8 9 7 7 9 7 7 7 8 9 8 7 8 7 6 5 5 5 5 6 7 6 6 6 8 9 9 9 8 7 7 8 8 8 9 10 10 9
34 11 4 3 0 13 35 20 3 23 18 -9 -4 6 8 20 19 -1 -12 -3 12 19 13 5 6 10 6 7 14 5 -4 5 8 5 13 12 6 9 11 12 11 9 9 5 3 6 8 9 9 5 7 15 20 14 6 3 1 1 5 8 8 6 6 8 7 7 7 7 8 8 8 7 7 6 4 4 5 5 6 6 6 6 6 8 8 9 9 8 7 7 7 8 9 9 10 10 9
39 29 10 4 -7 -3 23 25 10 21 26 11 2 -4 -7 -0 8 8 -0 -9 -4 10 14 7 4 8 8 6 8 5 4 8 5 7 13 11 10 11 8 12 13 9 8 6 5 7 7 8 9 6 7 12 18 16 8 4 1 0 4 7 6 6 6 6 7 7 6 7 8 8 8 7 7 6 4 4 4 4 5 4 4 5 6 9 9 9 9 8 8 8 8 8 7 7 9 9 9
14 26 21 11 -2 -2 9 15 13 17 20 14 15 15 -0 -10 -2 8 7 3 1 3 6 9 6 5 6 7 5 3 6 7 7 10 11 8 11 10 4 7 11 10 9 8 6 5 5 9 9 7 7 10 14 16 11 5 2 1 3 6 6 5 5 6 7 7 6 7 7 8 8 8 8 5 3 4 4 4 5 4 3 5 7 9 9 10 9 7 8 7 7 8 6 5 8 9 8
-9 7 16 3 3 13 9 5 9 16 17 11 16 30 27 12 6 6 7 5 4 4 6 8 7 6 6 5 3 2 4 5 8 10 8 4 6 10 11 10 8 8 10 9 7 6 7 8 10 9 7 9 13 15 14 9 3 2 2 5 6 3 4 6 5 6 6 7 8 8 8 8 8 6 4 3 3 4 5 4 3 4 6 9 9 10 9 7 8 7 7 7 7 6 6 7 7
-6 -2 1 -8 10 30 16 1 3 14 18 8 7 17 26 25 12 7 16 15 5 4 7 8 7 6 6 4 3 3 3 5 5 6 8 4 1 9 16 18 18 13 11 13 7 5 8 6 11 14 9 8 10 12 16 13 5 3 3 4 5 4 4 5 4 5 6 7 7 7 8 9 8 6 4 4 3 4 5 4 3 4 6 8 8 9 9 8 7 6 6 7 7 7 6 6 7
13 4 -12 -20 6 32 27 2 -12 4 16 8 7 5 11 25 15 -3 -0 9 15 13 6 6 8 7 6 4 3 3 1 4 4 4 8 6 4 7 6 14 27 15 4 13 11 4 6 5 8 14 9 8 10 10 16 16 10 5 3 4 5 3 4 4 4 5 6 7 7 7 8 8 8 7 5 4 4 4 4 3 3 4 5 6 7 7 8 8 7 6 5 6 7 7 7 6 6
13 13 -3 -14 -3 11 21 12 -7 4 14 9 10 2 -2 13 17 9 2 -2 8 17 11 7 6 5 6 3 2 3 1 3 4 3 7 7 8 11 4 9 22 9 -4 12 18 8 7 6 6 9 11 11 10 10 12 14 14 9 3 4 5 4 4 4 4 5 5 7 6 6 8 7 7 7 5 5 4 3 4 4 3 4 4 5 6 7 7 7 8 7 5 5 5 7 8 8 6
Height
5900 5900 5900 5900 5900 5900 5900 5900 5901 5900 5899 5897 5897 5895 5895 5894 5894 5896 5897 5898 5898 5899 5900 5900 5901 5901 5901 5901 5901 5900 5900 5900 5900 5900 5899 5899 5899 5900 5899 5899 5899 5900 5900 5900 5900 5900 5900 5900 5900 5901 5900 5900 5900 5901 5902 5902 5901 5902 5902 5901 5901 5901 5902 5903 5904 5904 5905 5905 5905 5905 5905 5905 5906 5906 5906 5906 5907 5907 5908 5908 5908 5908 5909 5909 5909 5908 5908 5907 5907 5907 5906 5905 5904 5903 5903 5906 5909
5901 5900 5900 5900 5900 5900 5900 5900 5901 5900 5900 5898 5897 5895 5894 5892 5892 5894 5897 5898 5899 5900 5901 5901 5901 5901 5901 5901 5901 5901 5900 5900 5900 5900 5900 5900 5900 5900 5900 5900 5900 5901 5902 5901 5901 5901 5901 5902 5902 5902 5902 5902 5902 5903 5903 5901 5902 5903 5903 5903 5902 5903 5904 5905 5905 5906 5906 5907 5906 5906 5907 5907 5907 5907 5907 5907 5908 5908 5908 5908 5909 5909 5909 5910 5910 5909 5909 5908 5908 5908 5907 5906 5905 5903 5903 5906 5909
5901 5901 5900 5900 5900 5900 5900 5900 5901 5900 5900 5899 5898 5896 5895 5894 5893 5895 5897 5899 5900 5901 5901 5901 5902 5902 5902 5902 5902 5901 5900 5901 5901 5900 5901 5901 5901 5902 5901 5901 5902 5902 5903 5902 5902 5902 5903 5903 5903 5903 5904 5905 5905 5904 5902 5901 5904 5905 5905 5904 5904 5904 5905 5906 5907 5907 5908 5908 5908 5908 5908 5908 5908 5908 5907 5908 5909 5909 5909 5909 5909 5910 5910 5910 5910 5910 5910 5909 5909 5908 5908 5907 5905 5904 5904 5905 5909
5901 5901 5900 5900 5900 5901 5900 5900 5901 5901 5901 5900 5899 5897 5897 5897 5897 5898 5898 5899 5901 5902 5902 5902 5902 5902 5902 5902 5902 5901 5901 5901 5901 5901 5902 5902 5902 5903 5902 5903 5903 5904 5904 5904 5904 5904 5904 5904 5904 5904 5905 5906 5905 5903 5902 5904 5907 5907 5906 5905 5905 5906 5907 5907 5908 5909 5909 5909 5908 5909 5909 5910 5910 5909 5908 5909 5910 5910 5910 5909 5910 5910 5911 5911 5911 5911 5911 5910 5910 5909 5909 5907 5906 5905 5904 5906 5908
5901 5901 5900 5900 5901 5900 5900 5900 5901 5901 5902 5901 5900 5899 5898 5898 5899 5901 5901 5901 5902 5902 5902 5902 5902 5902 5902 5903 5902 5901 5901 5902 5903 5902 5902 5903 5903 5904 5904 5903 5904 5905 5905 5905 5905 5905 5905 5905 5905 5906 5906 5906 5905 5905 5906 5908 5908 5907 5907 5906 5906 5907 5908 5908 5909 5910 5910 5909 5909 5910 5910 5910 5910 5910 5909 5910 5911 5911 5911 5911 5911 5911 5912 5912 5912 5912 5912 5911 5911 5910 5910 5908 5907 5906 5905 5906 5909
5901 5901 5900 5900 5900 5900 5900 5900 5901 5902 5901 5901 5901 5900 5900 5900 5901 5902 5902 5902 5902 5902 5902 5903 5903 5903 5903 5903 5902 5902 5902 5903 5903 5903 5903 5904 5905 5905 5905 5904 5904 5905 5906 5906 5906 5906 5907 5907 5907 5907 5907 5907 5907 5908 5909 5909 5908 5908 5907 5907 5907 5908 5909 5910 5910 5911 5911 5910 5910 5910 5911 5911 5911 5910 5911 5911 5911 5911 5912 5912 5912 5912 5913 5913 5914 5914 5913 5912 5912 5911 5911 5910 5908 5907 5906 5907 5909
5902 5902 5901 5900 5900 5900 5900 5900 5901 5902 5900 5900 5901 5901 5902 5901 5901 5902 5902 5903 5903 5903 5903 5903 5903 5904 5904 5903 5903 5903 5903 5903 5903 5904 5904 5905 5906 5906 5906 5905 5905 5906 5906 5907 5908 5908 5908 5908 5908 5909 5909 5910 5910 5910 5910 5909 5908 5908 5908 5908 5908 5910 5910 5911 5911 5911 5911 5911 5911 5911 5911 5912 5912 5912 5912 5912 5912 5912 5913 5913 5913 5913 5914 5914 5914 5914 5914 5913 5913 5912 5912 5911 5909 5907 5907 5907 5909
5902 5901 5900 5900 5901 5900 5900 5901 5902 5901 5900 5900 5901 5901 5902 5902 5902 5903 5903 5904 5904 5904 5904 5904 5904 5904 5904 5904 5904 5904 5903 5904 5904 5904 5905 5906 5906 5907 5907 5907 5907 5907 5907 5908 5908 5909 5910 5910 5910 5910 5911 5912 5911 5910 5909 5908 5908 5908 5909 5909 5910 5911 5911 5912 5912 5912 5912 5912 5912 5912 5912 5912 5912 5913 5913 5913 5913 5913 5914 5914 5914 5915 5915 5915 5915 5916 5915 5914 5914 5914 5913 5912 5910 5909 5908 5908 5909
5902 5901 5900 5901 5901 5901 5901 5902 5901 5902 5901 5901 5902 5901 5901 5902 5902 5903 5904 5905 5905 5905 5905 5905 5905 5905 5905 5905 5904 5904 5904 5904 5905 5905 5906 5907 5907 5908 5908 5908 5907 5907 5908 5908 5909 5910 5911 5911 5911 5911 5911 5911 5911 5910 5909 5909 5909 5909 5910 5911 5911 5912 5913 5913 5913 5913 5913 5913 5913 5912 5913 5913 5913 5914 5914 5914 5914 5914 5915 5915 5916 5916 5916 5916 5917 5917 5916 5915 5915 5915 5914 5913 5911 5911 5910 5909 5909
5901 5901 5901 5901 5901 5902 5902 5901 5901 5902 5901 5901 5902 5901 5900 5901 5902 5903 5904 5905 5906 5906 5906 5906 5906 5906 5906 5905 5905 5905 5905 5905 5905 5906 5906 5907 5908 5909 5909 5909 5908 5908 5908 5909 5909 5910 5911 5912 5912 5911 5911 5911 5911 5910 5910 5910 5910 5911 5912 5913 5913 5914 5914 5914 5914 5914 5914 5914 5913 5913 5914 5914 5914 5915 5916 5915 5915 5916 5916 5917 5917 5917 5917 5917 5917 5917 5917 5917 5916 5916 5915 5913 5913 5912 5911 5911 5910
5901 5901 5901 5901 5901 5902 5902 5900 5900 5901 5900 5900 5901 5900 5900 5900 5902 5903 5904 5905 5906 5906 5906 5907 5907 5906 5906 5906 5906 5905 5905 5906 5906 5906 5907 5908 5909 5909 5910 5910 5909 5909 5909 5910 5910 5911 5912 5912 5912 5912 5912 5912 5912 5912 5912 5912 5912 5913 5913 5914 5914 5915 5915 5915 5915 5915 5914 5914 5914 5915 5915 5915 5915 5916 5917 5917 5917 5918 5918 5918 5918 5918 5918 5918 5918 5918 5918 5918 5918 5917 5915 5915 5914 5914 5913 5912 5912
5901 5901 5901 5902 5902 5902 5901 5900 5899 5899 5899 5898 5898 5899 5899 5900 5902 5903 5904 5906 5907 5907 5907 5907 5907 5907 5907 5907 5907 5906 5906 5907 5907 5907 5908 5909 5909 5910 5910 5911 5910 5911 5911 5911 5911 5912 5913 5913 5913 5913 5913 5913 5913 5913 5913 5913 5914 5914 5915 5915 5916 5916 5916 5917 5916 5916 5915 5916 5916 5916 5916 5916 5917 5918 5918 5918 5919 5919 5920 5920 5920 5920 5920 5919 5919 5919 5919 5919 5918 5917 5916 5916 5916 5915 5914 5914 5914
5901 5901 5901 5902 5902 5901 5900 5900 5898 5898 5897 5896 5897 5898 5898 5900 5903 5903 5904 5906 5907 5907 5908 5908 5908 5908 5908 5908 5907 5907 5907 5907 5908 5908 5909 5909 5910 5911 5911 5911 5911 5911 5912 5912 5912 5913 5914 5914 5914 5914 5915 5915 5915 5915 5914 5915 5915 5916 5917 5916 5917 5917 5917 5918 5918 5917 5917 5917 5917 5917 5918 5918 5918 5919 5919 5919 5920 5920 5921 5922 5922 5921 5921 5921 5921 5920 5920 5919 5918 5918 5918 5918 5917 5916 5916 5915 5916
5901 5901 5901 5902 5902 5901 5900 5900 5898 5897 5896 5895 5896 5897 5898 5901 5903 5903 5904 5906 5907 5908 5908 5908 5908 5909 5909 5908 5908 5908 5908 5909 5909 5909 5910 5910 5911 5911 5912 5912 5912 5912 5912 5913 5913 5914 5914 5915 5915 5916 5916 5917 5917 5917 5916 5916 5917 5917 5918 5918 5918 5918 5919 5919 5919 5919 5919 5918 5918 5918 5918 5919 5920 5921 5921 5921 5921 5921 5922 5923 5923 5922 5922 5922 5922 5922 5921 5920 5920 5919 5919 5919 5918 5917 5917 5917 5918
5900 5901 5901 5901 5902 5902 5901 5899 5898 5897 5896 5895 5895 5897 5899 5901 5904 5904 5904 5906 5908 5908 5908 5908 5909 5909 5909 5909 5909 5909 5909 5910 5910 5910 5911 5911 5912 5912 5913 5913 5913 5913 5914 5914 5914 5915 5915 5916 5916 5917 5918 5918 5919 5919 5918 5918 5918 5918 5918 5919 5919 5919 5920 5920 5920 5920 5921 5920 5919 5919 5920 5921 5922 5923 5924 5924 5923 5923 5923 5923 5924 5923 5922 5923 5924 5924 5923 5923 5922 5921 5920 5920 5919 5918 5918 5918 5919
5900 5900 5900 5901 5902 5902 5901 5900 5898 5898 5897 5896 5896 5898 5899 5902 5905 5905 5905 5907 5908 5908 5908 5909 5909 5909 5909 5909 5909 5909 5910 5911 5911 5911 5912 5913 5913 5913 5914 5914 5914 5914 5915 5915 5916 5916 5916 5917 5917 5918 5919 5919 5920 5920 5920 5919 5919 5919 5919 5920 5920 5921 5922 5922 5921 5921 5922 5922 5921 5921 5921 5922 5923 5925 5926 5926 5925 5925 5924 5924 5924 5923 5923 5925 5926 5926 5925 5924 5924 5923 5922 5921 5920 5919 5920 5920 5921
5900 5900 5901 5901 5901 5902 5901 5900 5899 5899 5898 5897 5897 5899 5899 5902 5905 5905 5905 5907 5907 5908 5909 5909 5910 5909 5909 5909 5909 5910 5911 5911 5912 5912 5913 5914 5914 5914 5915 5915 5916 5916 5916 5917 5917 5917 5917 5918 5918 5919 5920 5920 5920 5921 5921 5921 5921 5920 5921 5921 5922 5922 5923 5924 5923 5923 5923 5923 5923 5923 5922 5923 5924 5926 5926 5927 5926 5926 5925 5924 5923 5924 5926 5928 5929 5928 5926 5925 5925 5924 5923 5922 5922 5921 5921 5922 5923
5900 5900 5900 5901 5901 5902 5902 5900 5900 5900 5900 5899 5899 5900 5900 5903 5905 5905 5906 5907 5908 5909 5910 5910 5910 5910 5909 5909 5909 5910 5911 5912 5913 5913 5913 5914 5915 5915 5916 5916 5917 5917 5917 5918 5918 5919 5919 5919 5920 5920 5921 5921 5921 5922 5922 5923 5923 5922 5923 5923 5922 5923 5924 5925 5926 5925 5925 5924 5924 5924 5924 5924 5925 5926 5926 5926 5928 5928 5928 5927 5926 5927 5929 5929 5929 5928 5927 5926 5925 5925 5924 5924 5924 5923 5923 5924 5925
5899 5900 5900 5900 5901 5901 5902 5901 5900 5900 5901 5900 5900 5901 5902 5904 5905 5906 5907 5908 5909 5910 5910 5910 5910 5910 5910 5909 5909 5910 5911 5912 5913 5913 5914 5915 5916 5916 5916 5917 5918 5918 5919 5919 5919 5920 5920 5921 5921 5922 5922 5922 5922 5922 5923 5924 5924 5924 5925 5924 5923 5923 5923 5925 5926 5926 5926 5926 5926 5926 5926 5925 5925 5927 5927 5929 5931 5931 5931 5931 5930 5930 5929 5929 5928 5927 5927 5926 5926 5926 5925 5926 5925 5925 5925 5925 5926
5898 5899 5900 5900 5901 5901 5901 5901 5901 5901 5901 5901 5902 5902 5903 5905 5906 5906 5908 5909 5910 5910 5911 5911 5911 5911 5910 5910 5909 5910 5912 5912 5913 5913 5914 5915 5916 5917 5917 5918 5919 5919 5920 5920 5920 5921 5921 5922 5923 5923 5923 5923 5922 5922 5923 5924 5924 5925 5926 5926 5925 5925 5925 5925 5925 5926 5927 5928 5928 5929 5929 5928 5927 5928 5930 5932 5933 5932 5931 5930 5930 5929 5929 5929 5928 5928 5927 5927 5927 5926 5927 5927 5927 5927 5927 5927 5928
5899 5899 5899 5900 5901 5901 5901 5902 5902 5902 5901 5902 5903 5903 5904 5905 5906 5907 5907 5909 5910 5910 5911 5911 5911 5911 5911 5911 5910 5910 5912 5913 5914 5914 5914 5915 5916 5917 5918 5918 5919 5920 5921 5921 5921 5922 5922 5923 5924 5924 5924 5924 5924 5923 5923 5924 5924 5924 5925 5926 5925 5927 5927 5927 5927 5927 5928 5929 5930 5930 5929 5930 5929 5928 5930 5931 5931 5930 5929 5928 5928 5928 5929 5929 5929 5928 5928 5928 5928 5928 5929 5929 5929 5929 5929 5929 5930
5898 5899 5899 5899 5901 5901 5901 5902 5902 5902 5901 5902 5903 5904 5905 5905 5906 5907 5907 5908 5909 5909 5910 5910 5910 5911 5912 5912 5911 5910 5912 5913 5914 5914 5915 5916 5917 5918 5919 5919 5920 5921 5921 5922 5922 5922 5923 5924 5925 5925 5925 5925 5925 5925 5925 5925 5925 5926 5926 5926 5926 5927 5928 5928 5929 5928 5928 5929 5930 5930 5929 5930 5929 5929 5929 5930 5930 5930 5930 5930 5929 5929 5930 5930 5929 5929 5929 5929 5930 5931 5931 5931 5931 5931 5931 5931 5932
5897 5898 5898 5900 5900 5901 5901 5902 5902 5902 5902 5903 5904 5905 5905 5905 5906 5907 5907 5908 5908 5909 5910 5910 5911 5912 5912 5912 5911 5911 5912 5913 5914 5915 5916 5916 5917 5918 5919 5920 5920 5921 5922 5923 5923 5923 5924 5925 5926 5926 5927 5927 5927 5927 5928 5927 5928 5928 5928 5928 5928 5928 5928 5929 5930 5930 5930 5930 5930 5931 5931 5931 5931 5930 5930 5931 5931 5932 5932 5932 5933 5933 5933 5933 5932 5932 5932 5932 5933 5933 5933 5933 5933 5932 5932 5932 5933
5896 5897 5898 5899 5900 5900 5901 5901 5901 5901 5903 5904 5904 5904 5905 5906 5907 5907 5907 5908 5909 5909 5911 5911 5911 5912 5912 5912 5912 5912 5912 5913 5915 5915 5916 5917 5918 5919 5920 5920 5921 5922 5922 5923 5924 5924 5925 5926 5926 5927 5928 5929 5929 5929 5930 5930 5930 5930 5930 5930 5930 5930 5930 5931 5931 5931 5932 5932 5932 5933 5933 5933 5933 5932 5932 5932 5932 5932 5933 5933 5934 5935 5934 5934 5934 5934 5935 5936 5937 5936 5935 5936 5935 5934 5934 5935 5935
5895 5896 5897 5898 5899 5899 5900 5900 5900 5901 5902 5904 5903 5903 5904 5906 5907 5907 5907 5909 5909 5910 5911 5911 5911 5912 5912 5912 5912 5912 5913 5914 5915 5916 5917 5917 5918 5919 5920 5921 5922 5922 5923 5924 5924 5925 5926 5927 5927 5928 5929 5930 5930 5931 5931 5932 5932 5932 5932 5932 5932 5932 5932 5932 5933 5933 5934 5934 5935 5935 5935 5935 5935 5935 5935 5935 5934 5934 5934 5934 5935 5935 5935 5935 5935 5935 5935 5936 5938 5938 5938 5939 5938 5938 5938 5938 5938
5893 5895 5896 5897 5898 5899 5899 5900 5900 5900 5901 5902 5902 5902 5903 5906 5907 5906 5906 5909 5909 5910 5911 5911 5911 5911 5912 5912 5912 5913 5913 5914 5915 5916 5917 5917 5918 5920 5921 5922 5923 5923 5924 5924 5925 5926 5927 5928 5928 5929 5930 5931 5932 5932 5933 5933 5934 5934 5934 5934 5934 5934 5934 5934 5935 5935 5936 5936 5937 5937 5937 5937 5937 5937 5937 5937 5937 5937 5937 5938 5938 5937 5937 5937 5937 5938 5937 5937 5938 5939 5939 5941 5941 5941 5941 5941 5941
5892 5893 5895 5896 5897 5898 5899 5899 5899 5899 5900 5901 5900 5900 5902 5905 5907 5906 5907 5908 5909 5909 5911 5911 5911 5911 5912 5912 5912 5913 5913 5914 5915 5916 5917 5918 5919 5920 5921 5922 5923 5924 5925 5925 5926 5927 5928 5928 5929 5930 5931 5931 5932 5933 5934 5934 5935 5935 5935 5936 5936 5936 5936 5936 5937 5937 5937 5938 5939 5939 5939 5940 5940 5940 5939 5939 5940 5940 5940 5940 5940 5940 5940 5940 5940 5940 5940 5940 5940 5940 5942 5943 5943 5944 5943 5943 5944
5890 5892 5893 5895 5896 5897 5897 5898 5898 5898 5899 5900 5899 5899 5901 5904 5905 5905 5907 5908 5908 5909 5910 5911 5911 5911 5911 5912 5912 5913 5914 5914 5915 5916 5917 5918 5919 5920 5921 5922 5924 5925 5926 5926 5927 5927 5928 5929 5930 5931 5932 5932 5933 5934 5935 5936 5936 5936 5937 5937 5937 5938 5938 5938 5938 5939 5939 5940 5940 5941 5941 5942 5942 5942 5942 5942 5942 5942 5942 5942 5942 5942 5942 5942 5942 5941 5942 5942 5942 5943 5944 5945 5945 5946 5945 5945 5945
5889 5890 5892 5893 5895 5896 5896 5897 5897 5897 5899 5900 5899 5899 5900 5902 5903 5904 5906 5908 5908 5909 5910 5911 5911 5911 5911 5912 5912 5913 5914 5914 5915 5916 5917 5918 5919 5920 5922 5923 5924 5925 5926 5927 5928 5928 5929 5930 5931 5932 5932 5933 5933 5935 5936 5936 5937 5938 5938 5938 5939 5939 5940 5940 5940 5940 5941 5941 5942 5942 5943 5943 5943 5944 5944 5944 5944 5944 5944 5944 5944 5944 5944 5944 5944 5944 5944 5944 5944 5945 5946 5946 5947 5947 5947 5947 5947
5887 5889 5890 5892 5894 5895 5895 5896 5897 5896 5898 5900 5899 5899 5899 5900 5902 5904 5905 5907 5907 5909 5910 5911 5911 5911 5911 5912 5912 5913 5914 5915 5915 5916 5918 5919 5919 5921 5922 5923 5924 5926 5927 5928 5928 5929 5930 5931 5932 5933 5933 5934 5934 5935 5936 5937 5938 5939 5939 5939 5940 5941 5941 5941 5941 5942 5942 5942 5943 5943 5944 5945 5945 5945 5945 5945 5946 5946 5946 5946 5946 5946 5946 5946 5946 5946 5946 5946 5947 5947 5947 5948 5948 5949 5949 5949 5949
5886 5888 5889 5891 5892 5893 5894 5895 5896 5896 5897 5899 5898 5898 5898 5898 5901 5903 5905 5906 5906 5908 5910 5911 5911 5911 5912 5912 5913 5913 5914 5915 5915 5916 5918 5919 5920 5921 5922 5923 5925 5926 5927 5928 5929 5930 5930 5931 5932 5933 5934 5935 5935 5936 5937 5938 5939 5940 5940 5941 5941 5942 5942 5943 5943 5943 5943 5943 5944 5944 5945 5946 5946 5947 5947 5947 5947 5947 5948 5947 5947 5948 5947 5947 5948 5948 5948 5948 5948 5949 5950 5949 5950 5950 5951 5951 5951
5885 5887 5889 5890 5891 5892 5893 5894 5894 5895 5897 5899 5898 5898 5898 5898 5900 5902 5904 5905 5905 5907 5909 5910 5910 5911 5912 5912 5913 5913 5914 5915 5916 5917 5918 5919 5920 5921 5922 5923 5925 5926 5927 5928 5929 5930 5931 5932 5933 5934 5935 5935 5936 5936 5937 5938 5939 5940 5941 5942 5942 5943 5943 5944 5944 5944 5945 5945 5945 5945 5946 5947 5947 5948 5948 5948 5948 5948 5949 5949 5949 5949 5949 5949 5949 5950 5950 5950 5950 5950 5951 5951 5951 5952 5953 5953 5953
5884 5887 5888 5889 5890 5891 5892 5893 5893 5895 5897 5898 5898 5898 5898 5898 5899 5901 5902 5904 5904 5906 5908 5909 5910 5911 5912 5912 5913 5913 5914 5915 5916 5917 5918 5919 5920 5921 5922 5923 5925 5926 5927 5928 5930 5931 5932 5933 5934 5935 5935 5936 5937 5937 5938 5939 5940 5941 5941 5942 5943 5944 5944 5945 5945 5946 5946 5946 5946 5947 5947 5948 5948 5949 5949 5949 5950 5950 5950 5950 5950 5950 5950 5951 5951 5951 5951 5952 5952 5952 5952 5952 5953 5954 5954 5955 5955
5884 5886 5887 5888 5889 5889 5890 5891 5892 5894 5895 5896 5897 5898 5899 5898 5898 5901 5902 5903 5903 5905 5908 5909 5910 5911 5911 5912 5913 5913 5914 5915 5916 5916 5917 5918 5920 5921 5921 5923 5924 5926 5927 5928 5929 5931 5932 5933 5934 5935 5936 5937 5937 5938 5938 5939 5940 5941 5942 5943 5944 5944 5945 5946 5946 5947 5947 5948 5948 5948 5948 5949 5949 5950 5950 5951 5951 5951 5951 5952 5952 5952 5952 5952 5952 5953 5953 5954 5954 5954 5954 5955 5955 5955 5956 5956 5956
5885 5886 5887 5887 5887 5888 5889 5890 5891 5892 5894 5895 5896 5897 5898 5898 5899 5901 5902 5903 5904 5905 5907 5908 5909 5911 5911 5912 5912 5913 5914 5915 5916 5917 5918 5918 5919 5920 5921 5922 5924 5925 5927 5928 5929 5930 5932 5933 5934 5935 5936 5937 5937 5938 5939 5939 5940 5941 5942 5943 5944 5945 5946 5946 5947 5947 5948 5949 5949 5949 5950 5950 5950 5951 5951 5952 5952 5952 5953 5953 5953 5953 5953 5953 5954 5954 5955 5955 5955 5956 5956 5956 5957 5957 5957 5958 5958
5884 5885 5886 5886 5887 5888 5888 5889 5889 5891 5893 5894 5895 5897 5897 5897 5898 5899 5901 5902 5903 5904 5906 5907 5908 5910 5911 5911 5912 5912 5913 5914 5916 5917 5918 5918 5919 5920 5921 5922 5924 5925 5926 5927 5929 5930 5931 5932 5934 5935 5936 5937 5938 5938 5939 5940 5941 5942 5942 5943 5944 5945 5946 5947 5947 5948 5949 5949 5950 5950 5951 5951 5951 5952 5952 5953 5953 5954 5954 5954 5954 5954 5955 5955 5955 5956 5956 5956 5957 5957 5957 5958 5958 5959 5959 5959 5960
5879 5883 5886 5885 5886 5888 5886 5887 5888 5889 5892 5892 5893 5896 5896 5896 5897 5898 5900 5901 5901 5903 5905 5906 5907 5909 5911 5911 5911 5912 5913 5914 5915 5917 5918 5918 5919 5920 5921 5922 5924 5925 5926 5927 5928 5929 5931 5932 5933 5935 5936 5937 5938 5938 5939 5940 5941 5942 5943 5944 5944 5945 5947 5947 5948 5949 5949 5950 5951 5951 5952 5952 5952 5953 5953 5953 5954 5954 5955 5955 5955 5956 5956 5956 5957 5957 5958 5958 5958 5958 5959 5959 5960 5960 5960 5961 5961
5876 5882 5885 5885 5886 5887 5884 5885 5887 5888 5891 5891 5891 5894 5895 5896 5896 5897 5898 5899 5900 5902 5903 5904 5905 5908 5909 5910 5911 5912 5913 5914 5915 5916 5917 5918 5919 5920 5921 5922 5923 5924 5925 5926 5928 5929 5930 5932 5933 5934 5936 5937 5938 5939 5940 5941 5942 5943 5943 5944 5945 5946 5947 5948 5949 5949 5950 5951 5951 5952 5952 5953 5953 5954 5954 5954 5954 5955 5956 5956 5956 5957 5957 5958 5958 5959 5959 5960 5960 5960 5960 5960 5961 5961 5962 5962 5963
5876 5879 5881 5882 5884 5884 5882 5884 5887 5888 5890 5891 5891 5892 5894 5895 5896 5896 5896 5898 5899 5901 5901 5902 5904 5906 5908 5910 5911 5911 5912 5913 5915 5916 5917 5918 5919 5920 5921 5921 5923 5924 5925 5926 5927 5928 5930 5931 5932 5934 5935 5937 5938 5939 5940 5941 5942 5943 5944 5945 5946 5947 5947 5948 5949 5950 5950 5951 5952 5952 5953 5953 5954 5954 5954 5955 5955 5956 5956 5957 5957 5958 5958 5959 5960 5960 5961 5961 5961 5961 5961 5961 5962 5962 5963 5963 5964
5875 5876 5878 5881 5881 5881 5882 5884 5886 5887 5889 5890 5891 5892 5892 5893 5895 5896 5896 5897 5898 5899 5900 5902 5903 5904 5906 5909 5910 5911 5912 5913 5915 5916 5917 5917 5918 5919 5920 5921 5922 5924 5925 5926 5927 5928 5929 5930 5932 5933 5935 5937 5938 5940 5941 5942 5943 5943 5944 5945 5946 5947 5948 5949 5950 5951 5951 5951 5952 5953 5953 5954 5954 5955 5955 5955 5956 5956 5957 5958 5958 5959 5959 5960 5960 5961 5961 5962 5962 5962 5962 5962 5962 5963 5963 5964 5965
5873 5875 5877 5880 5880 5881 5883 5882 5882 5886 5889 5890 5890 5891 5892 5893 5893 5894 5896 5897 5898 5898 5899 5901 5902 5903 5906 5908 5910 5911 5912 5913 5914 5915 5916 5917 5918 5919 5920 5921 5922 5923 5924 5925 5926 5927 5928 5930 5931 5933 5934 5936 5938 5940 5941 5942 5943 5943 5944 5945 5946 5947 5948 5949 5950 5951 5951 5951 5952 5953 5954 5954 5955 5955 5956 5956 5956 5957 5958 5958 5959 5959 5960 5960 5961 5962 5962 5963 5963 5963 5963 5963 5963 5963 5964 5965 5965
5870 5873 5875 5878 5879 5882 5881 5878 5881 5886 5889 5890 5891 5892 5893 5893 5892 5893 5894 5896 5897 5898 5899 5900 5901 5903 5905 5907 5908 5910 5912 5912 5913 5915 5916 5917 5918 5919 5920 5921 5921 5923 5924 5925 5926 5927 5928 5929 5931 5932 5934 5936 5938 5939 5941 5941 5942 5943 5944 5945 5946 5947 5948 5949 5950 5951 5951 5952 5952 5953 5954 5954 5955 5956 5956 5957 5957 5957 5958 5959 5959 5960 5960 5961 5962 5962 5963 5963 5964 5964 5964 5964 5964 5964 5965 5965 5965
5867 5870 5873 5874 5875 5879 5879 5878 5882 5887 5888 5889 5891 5892 5893 5893 5892 5891 5892 5895 5895 5897 5899 5900 5901 5902 5903 5905 5907 5909 5911 5912 5913 5914 5915 5916 5917 5918 5919 5920 5921 5922 5923 5924 5926 5927 5928 5929 5931 5932 5934 5936 5937 5939 5940 5941 5942 5943 5944 5945 5946 5948 5948 5949 5950 5950 5951 5952 5953 5953 5954 5955 5955 5956 5957 5957 5957 5958 5959 5959 5960 5960 5961 5961 5962 5963 5964 5964 5964 5965 5965 5966 5965 5965 5965 5966 5966
5866 5868 5871 5871 5872 5875 5876 5878 5882 5885 5887 5887 5888 5891 5891 5892 5891 5889 5891 5893 5894 5896 5898 5899 5901 5902 5902 5903 5905 5908 5910 5911 5912 5914 5914 5915 5916 5918 5918 5919 5920 5921 5923 5924 5925 5926 5928 5929 5930 5932 5933 5935 5937 5938 5939 5940 5942 5943 5944 5945 5947 5948 5948 5949 5950 5950 5951 5952 5952 5953 5954 5955 5956 5957 5957 5958 5958 5958 5959 5960 5960 5961 5961 5962 5963 5963 5964 5964 5965 5965 5966 5966 5966 5966 5966 5967 5967
5863 5864 5866 5868 5870 5872 5874 5877 5880 5883 5885 5886 5888 5889 5890 5891 5889 5888 5891 5892 5893 5895 5896 5897 5898 5899 5901 5903 5904 5906 5909 5910 5911 5913 5914 5915 5916 5917 5918 5919 5920 5921 5922 5923 5924 5925 5927 5928 5930 5931 5933 5935 5936 5937 5938 5940 5941 5943 5944 5945 5946 5948 5948 5949 5949 5950 5951 5952 5952 5953 5954 5955 5956 5957 5958 5958 5958 5959 5959 5960 5961 5961 5962 5962 5963 5964 5964 5964 5965 5966 5966 5966 5967 5967 5967 5967 5967
5858 5859 5861 5862 5865 5869 5872 5875 5878 5881 5882 5884 5887 5888 5889 5889 5888 5888 5889 5889 5891 5893 5894 5897 5898 5898 5900 5902 5903 5905 5907 5908 5909 5911 5913 5914 5915 5916 5917 5918 5919 5920 5921 5922 5923 5924 5926 5927 5929 5931 5932 5934 5935 5937 5938 5939 5941 5942 5944 5945 5946 5947 5948 5948 5949 5950 5950 5951 5952 5953 5954 5955 5956 5957 5958 5959 5959 5960 5960 5961 5961 5962 5962 5963 5963 5964 5964 5965 5965 5966 5966 5967 5967 5967 5967 5968 5968
5853 5855 5858 5859 5862 5866 5869 5872 5875 5878 5879 5880 5884 5888 5888 5887 5887 5887 5885 5886 5889 5890 5892 5894 5896 5898 5899 5900 5902 5903 5905 5907 5909 5910 5912 5913 5914 5915 5916 5917 5919 5919 5919 5921 5922 5923 5925 5926 5928 5929 5931 5933 5934 5936 5937 5938 5940 5942 5943 5945 5946 5947 5947 5948 5949 5950 5950 5951 5952 5953 5954 5955 5956 5957 5958 5959 5960 5960 5961 5961 5961 5962 5963 5963 5964 5964 5964 5965 5966 5966 5967 5967 5967 5968 5968 5968 5968
5850 5852 5855 5858 5861 5864 5867 5872 5873 5873 5877 5880 5882 5886 5889 5887 5885 5884 5884 5885 5887 5888 5889 5890 5892 5895 5897 5899 5901 5902 5904 5906 5908 5909 5910 5911 5913 5913 5915 5916 5918 5919 5919 5920 5921 5922 5924 5925 5926 5928 5930 5931 5933 5935 5936 5937 5939 5941 5942 5944 5945 5946 5947 5948 5949 5950 5951 5951 5952 5953 5954 5955 5956 5957 5958 5959 5960 5960 5961 5961 5962 5963 5963 5964 5964 5965 5965 5965 5966 5967 5967 5967 5968 5968 5968 5968 5968
5847 5848 5852 5856 5859 5863 5866 5869 5870 5871 5876 5881 5881 5883 5888 5886 5881 5880 5882 5883 5884 5885 5887 5888 5889 5890 5891 5894 5897 5900 5902 5905 5907 5908 5909 5910 5912 5913 5913 5914 5916 5918 5919 5919 5920 5921 5922 5924 5925 5927 5928 5929 5931 5933 5935 5936 5938 5939 5941 5943 5944 5945 5946 5948 5949 5950 5951 5951 5952 5953 5954 5955 5956 5957 5958 5959 5960 5960 5961 5961 5962 5963 5964 5964 5965 5965 5965 5966 5966 5967 5967 5967 5968 5968 5969 5969 5969
5843 5845 5850 5854 5857 5861 5863 5865 5867 5870 5874 5878 5880 5883 5884 5880 5877 5879 5881 5881 5882 5884 5885 5887 5888 5889 5889 5891 5895 5898 5901 5903 5906 5908 5909 5910 5911 5912 5912 5912 5913 5916 5918 5918 5918 5920 5921 5922 5923 5925 5926 5927 5929 5932 5933 5935 5936 5938 5940 5942 5943 5944 5946 5947 5948 5949 5950 5951 5952 5953 5954 5955 5956 5957 5958 5958 5959 5960 5961 5961 5962 5963 5964 5964 5965 5965 5966 5966 5967 5967 5967 5968 5968 5968 5969 5969 5969
5840 5845 5849 5853 5856 5859 5861 5864 5867 5869 5873 5877 5881 5884 5882 5876 5875 5878 5879 5880 5881 5882 5884 5886 5887 5888 5889 5891 5893 5894 5895 5899 5902 5904 5906 5907 5907 5909 5910 5911 5912 5915 5916 5917 5917 5918 5919 5921 5922 5923 5924 5926 5927 5930 5932 5934 5935 5937 5939 5941 5942 5943 5945 5947 5948 5949 5950 5951 5952 5953 5953 5955 5956 5957 5958 5958 5959 5960 5961 5961 5962 5963 5963 5964 5965 5965 5966 5966 5967 5967 5968 5968 5968 5969 5969 5970 5970
5839 5844 5847 5850 5854 5858 5861 5865 5867 5869 5874 5877 5878 5880 5877 5873 5874 5875 5877 5879 5880 5881 5883 5885 5886 5888 5889 5890 5891 5890 5890 5894 5896 5897 5900 5903 5905 5907 5909 5910 5912 5913 5915 5915 5916 5917 5918 5919 5920 5921 5923 5924 5926 5928 5930 5932 5933 5936 5938 5939 5941 5942 5943 5945 5947 5948 5949 5950 5951 5952 5953 5954 5955 5957 5957 5958 5959 5959 5960 5961 5962 5962 5963 5964 5964 5965 5965 5966 5967 5968 5968 5968 5969 5969 5970 5970 5971
5836 5840 5843 5847 5852 5857 5861 5865 5867 5869 5872 5875 5874 5873 5872 5871 5873 5873 5874 5877 5878 5880 5882 5884 5885 5886 5888 5889 5890 5889 5890 5892 5894 5894 5896 5900 5904 5907 5907 5908 5910 5911 5913 5914 5915 5916 5917 5917 5918 5919 5921 5922 5924 5926 5928 5930 5932 5934 5936 5938 5939 5941 5942 5944 5945 5947 5948 5949 5950 5951 5953 5954 5955 5956 5957 5958 5958 5959 5960 5960 5961 5962 5963 5963 5964 5965 5965 5966 5967 5968 5968 5968 5969 5969 5970 5970 5971
5834 5838 5843 5847 5850 5852 5856 5861 5864 5866 5869 5872 5871 5869 5870 5871 5871 5870 5872 5875 5876 5879 5881 5882 5884 5885 5887 5888 5889 5889 5890 5892 5894 5895 5896 5898 5902 5904 5904 5906 5907 5910 5912 5912 5913 5914 5915 5916 5917 5918 5920 5921 5923 5924 5926 5928 5930 5933 5934 5936 5938 5939 5940 5942 5944 5946 5947 5948 5949 5950 5952 5953 5954 5955 5956 5957 5958 5959 5959 5960 5961 5961 5962 5963 5964 5964 5965 5966 5967 5968 5968 5968 5968 5969 5970 5970 5971
5830 5833 5837 5844 5847 5847 5849 5854 5859 5863 5866 5869 5870 5868 5867 5869 5869 5868 5870 5873 5875 5877 5879 5881 5882 5884 5886 5887 5888 5889 5890 5890 5892 5894 5895 5897 5900 5902 5903 5904 5906 5909 5911 5911 5912 5913 5914 5915 5916 5917 5918 5920 5922 5923 5925 5927 5929 5931 5933 5935 5936 5937 5938 5940 5942 5944 5946 5947 5948 5949 5951 5952 5953 5954 5955 5957 5958 5958 5959 5959 5960 5961 5962 5962 5963 5964 5965 5966 5966 5967 5967 5968 5968 5969 5970 5970 5970
5828 5830 5834 5840 5844 5845 5848 5852 5856 5861 5864 5866 5869 5868 5863 5863 5864 5864 5867 5871 5873 5876 5878 5879 5881 5883 5884 5886 5887 5888 5889 5890 5891 5891 5892 5894 5897 5899 5901 5902 5904 5906 5908 5908 5910 5912 5913 5914 5916 5917 5918 5920 5922 5923 5925 5926 5928 5929 5931 5933 5934 5935 5937 5939 5940 5942 5944 5945 5947 5948 5949 5951 5952 5954 5955 5956 5957 5958 5958 5959 5959 5960 5961 5962 5962 5963 5964 5965 5966 5966 5967 5967 5968 5969 5970 5970 5971
5826 5830 5834 5837 5839 5843 5848 5851 5854 5858 5861 5863 5867 5864 5858 5859 5861 5862 5866 5870 5871 5874 5876 5877 5879 5881 5883 5884 5886 5887 5888 5889 5889 5890 5890 5891 5891 5892 5896 5899 5900 5901 5904 5906 5908 5910 5912 5913 5915 5916 5917 5918 5920 5922 5924 5925 5927 5929 5930 5932 5933 5934 5935 5937 5939 5940 5942 5944 5946 5947 5948 5950 5951 5953 5954 5955 5956 5957 5958 5958 5959 5960 5960 5961 5961 5962 5963 5964 5965 5966 5966 5967 5967 5968 5969 5969 5970
5821 5827 5833 5836 5837 5840 5844 5848 5851 5854 5858 5862 5864 5859 5855 5857 5859 5860 5864 5867 5868 5871 5873 5875 5878 5879 5881 5883 5884 5886 5887 5888 5888 5889 5890 5891 5889 5889 5894 5897 5896 5898 5902 5904 5906 5909 5911 5912 5914 5915 5915 5916 5917 5920 5922 5924 5926 5928 5930 5931 5932 5933 5934 5936 5937 5939 5940 5942 5944 5945 5947 5949 5950 5951 5952 5954 5955 5956 5957 5958 5958 5959 5959 5960 5960 5961 5962 5963 5964 5965 5966 5966 5967 5968 5968 5969 5970